Location: Asheville, NC
(35.6000°N, 82.5500°W)
Time: 04:23:46
(UTC-05:00)

Vanguard 1 Rocket - Pass Details

Date: 07 December 2017
Orbit: 656 x 4222 km, 34.3° (Epoch: 17 January)

Event Time Altitude Azimuth Distance (km) Brightness Sun altitude
Enters shadow 01:45:09 - 288° (WNW) 7,908 12.0 -67.7°
Rises 01:45:10 0° 288° (WNW) 7,906 - -67.7°
Reaches altitude 10° 01:50:37 10° 283° (WNW) 7,147 - -66.7°
Maximum altitude 02:13:44 44° 222° (SW) 4,974 - -62.4°
Exits shadow 02:27:50 23° 168° (SSE) 5,439 11.1 -59.7°
Drops below altitude 10° 02:33:13 10° 157° (SSE) 6,049 11.6 -58.7°
Sets 02:37:26 0° 150° (SSE) 6,656 11.9 -57.9°
